[[{"header":{"parameterUnit":"m.s-1","parameterCategory":2,"la1":30.2991,"la2":30.254,"lo1":-89.0895,"lo2":-89.0444,"dy":0.0017,"dx":0.0017,"nx":28,"ny":28,"refTime":"2025-08-12T21:00:00:Z","depth":"0","parameterNumber":2,"parameterNumberName":"U-component_of_CURRENTS"},"data":[0,0,0,0,0,0,0,0,0,0,0,0,0,0,0,0,0,0,0,0,0,0,0,0,0,0,0,0,0,0,0,0,0,0,0,0,0,0,0,0,0,0,0,0,0,0,0,0,0,0,0,0,0,0,0,0,0,0,0.3086,0.3085,0,0.2968,0.2967,0.2965,0.2892,0.2892,0.2892,0.2892,0.2882,0.2882,0.2882,0,0,0,0,0,0,0,0,0,0,0,0,0,0.3252,0.3249,0.3086,0.3085,0.3083,0.2968,0.2967,0.2965,0.2892,0.2892,0.2892,0.2892,0.2882,0.2882,0.2882,0,0,0,0,0,0,0,0,0,0,0,0,0,0.316,0.3248,0.3086,0.3035,0.3029,0.2969,0.2967,0.2964,0.2892,0.2892,0.2892,0.2892,0.2882,0.2882,0.2882,0.2888,0,0,0.2881,0.2881,0,0,0,0,0,0,0,0,0.3165,0.3153,0.3044,0.3038,0.3032,0.2946,0.3021,0.2945,0.2893,0.2942,0.2892,0.2891,0.2915,0.2912,0.2886,0.2887,0.2887,0.2881,0.2881,0.2881,0.2881,0,0,0,0,0,0,0,0.3171,0.3158,0.3038,0.3042,0.3035,0.3019,0.3005,0.3006,0.2933,0.2938,0.2933,0.2923,0.2912,0.2887,0.2886,0.2887,0.2881,0.2881,0.2881,0.2881,0.2903,0.2903,0,0,0,0,0,0,0.3189,0.3164,0.3041,0.3034,0.3101,0.3016,0.3001,0.2973,0.293,0.2923,0.2923,0.292,0.2887,0.2886,0.2886,0.2899,0.2881,0.2881,0.2881,0.2902,0.2903,0.2904,0,0,0,0,0,0,0.3193,0.3179,0.3046,0.3099,0.3081,0.3014,0.2983,0.297,0.2944,0.2918,0.2912,0.291,0.2887,0.2886,0.2888,0.2899,0.2881,0.2881,0.2902,0.2902,0.2903,0.2922,0,0,0,0,0,0,0.3198,0.318,0.3166,0.31,0.3079,0.3009,0.2983,0.2968,0.2939,0.2934,0.2905,0.2903,0.2886,0.2888,0.2887,0.2898,0.2881,0.2901,0.2902,0.2903,0.2921,0.2924,0.2926,0,0,0,0,0,0.3204,0.3187,0.3166,0.3151,0.3061,0.3009,0.2997,0.2948,0.2939,0.2924,0.2911,0.2904,0.2895,0.2888,0.2888,0.2899,0.29,0.2902,0.2903,0.292,0.2923,0.2926,0,0,0,0,0,0,0.3264,0.3176,0.3152,0.3112,0.3065,0.2998,0.2981,0.2954,0.2927,0.293,0.2909,0.2906,0.2914,0.2907,0.2899,0.2909,0.2898,0.29,0.2911,0.2914,0.2917,0.2906,0.2881,0,0,0,0,0,0.3269,0.3222,0.3155,0.3124,0.3104,0.3046,0.3021,0.2989,0.2957,0.2942,0.2923,0.2916,0.2919,0.2917,0.2913,0.2918,0.2915,0.2927,0.2929,0.2932,0.2924,0.2944,0.2947,0.2908,0.2908,0.2908,0,0,0.328,0.3231,0.3203,0.3133,0.3094,0.3047,0.3029,0.2994,0.2963,0.2952,0.292,0.2927,0.2924,0.2925,0.2928,0.292,0.294,0.2933,0.2935,0.2926,0.2946,0.2949,0.2953,0.2909,0.2909,0.2909,0,0,0.3266,0.3242,0.3186,0.3148,0.3091,0.3062,0.3055,0.2993,0.2978,0.2955,0.2948,0.2959,0.2945,0.2943,0.2944,0.2963,0.2957,0.2969,0.2969,0.2989,0.2992,0.2995,0.2988,0.299,0.2966,0.2966,0.2966,0,0.3284,0.3198,0.317,0.3113,0.3085,0.3069,0.3018,0.3003,0.2951,0.2949,0.295,0.2945,0.295,0.2957,0.2964,0.2968,0.297,0.2956,0.2992,0.2995,0.2998,0.299,0.2992,0.2968,0.2967,0.2967,0.2967,0,0.3206,0.3152,0.313,0.3045,0.3027,0.2987,0.2966,0.2958,0.2956,0.2936,0.2948,0.2957,0.2952,0.2968,0.2971,0.2995,0.2987,0.2997,0.2983,0.3003,0.2993,0.2995,0.2969,0.2969,0.2968,0.2968,0,0,0.3177,0.3086,0.3075,0.3025,0.2986,0.2954,0.2952,0.2925,0.2917,0.2915,0.2903,0.2934,0.295,0.2953,0.2971,0.2995,0.3022,0.3005,0.3006,0.2994,0.305,0.2876,0.2861,0.3044,0.3045,0.3045,0.3032,0,0.311,0.2997,0.2986,0.2904,0.2838,0.2864,0.286,0.2858,0.2871,0.2865,0.2908,0.2907,0.2942,0.2948,0.2983,0.3008,0.3028,0.3023,0.3034,0.3034,0.2875,0.2858,0.2673,0.2631,0.3034,0.3034,0.3034,0,0.299,0.2939,0.2838,0.2804,0.2788,0.2765,0.2769,0.2766,0.2796,0.2814,0.2843,0.2868,0.2904,0.2936,0.2991,0.2987,0.302,0.3045,0.3045,0.2874,0.2863,0.2678,0.2619,0.2562,0.3037,0.3037,0.3036,0,0.2894,0.2826,0.2749,0.2725,0.2695,0.2691,0.2707,0.2736,0.2737,0.2777,0.2774,0.2833,0.2837,0.2908,0.2957,0.2981,0.3006,0.3042,0.2917,0.2906,0.2741,0.2711,0.2619,0.3086,0.3086,0.3086,0.3086,0,0.2765,0.2688,0.2697,0.2633,0.2584,0.2619,0.2591,0.2621,0.2664,0.2639,0.2736,0.2717,0.2834,0.2859,0.2934,0.2898,0.2986,0.2895,0.2883,0.2738,0.271,0.2647,0.265,0.3085,0.3085,0.3085,0.3086,0,0.2572,0.2584,0.2487,0.2496,0.2502,0.2461,0.2498,0.2485,0.2556,0.2525,0.2534,0.2615,0.2626,0.272,0.2804,0.2815,0.2733,0.2818,0.2616,0.2578,0.2361,0.2372,0.2163,0.2125,0.2655,0.265,0.2647,0,0.2412,0.2352,0.2362,0.2338,0.2323,0.2305,0.2297,0.2392,0.2379,0.2436,0.2397,0.2429,0.239,0.2435,0.2469,0.2511,0.2542,0.2372,0.2373,0.2287,0.2295,0.2248,0.2234,0.218,0.2172,0.2166,0.2162,0,0.2138,0.2182,0.2147,0.2099,0.2085,0.2074,0.2076,0.2066,0.2159,0.2137,0.2095,0.2082,0.2102,0.2023,0.2083,0.2121,0.2197,0.2244,0.2226,0.1945,0.1819,0.1797,0.2253,0.2108,0.2114,0.2118,0.212,0.2123,0.195,0.1891,0.1892,0.183,0.1841,0.1821,0.1765,0.1783,0.1739,0.1686,0.1773,0.1677,0.1674,0.1692,0.174,0.1673,0.178,0.1644,0.1677,0.1649,0.1545,0.1844,0.1636,0.1639,0.1641,0.1643,0.1644,0,0.1675,0.1661,0.1613,0.1579,0.1538,0.1596,0.1586,0.1522,0.1408,0.1391,0.1319,0.1206,0.1136,0.121,0.1177,0.1139,0.1169,0.114,0.1085,0.1119,0.1436,0.1348,0.0979,0.0979,0.0979,0.0979,0.0979,0.0979,0.152,0.142,0.1412,0.1276,0.1263,0.1169,0.1137,0.1073,0.1043,0.0886,0.079,0.0792,0.0845,0.0779,0.0754,0.0771,0.0804,0.0667,0.0809,0.1081,0.1134,0.1184,0.1102,0.0687,0.0687,0.0411,0.0408,0.0407]},{"header":{"parameterUnit":"m.s-1","parameterCategory":2,"la1":30.2991,"la2":30.254,"lo1":-89.0895,"lo2":-89.0444,"dy":0.0017,"dx":0.0017,"nx":28,"ny":28,"refTime":"2025-08-12T21:00:00:Z","depth":"0","parameterNumber":3,"parameterNumberName":"V-component_of_CURRENTS"},"data":[0,0,0,0,0,0,0,0,0,0,0,0,0,0,0,0,0,0,0,0,0,0,0,0,0,0,0,0,0,0,0,0,0,0,0,0,0,0,0,0,0,0,0,0,0,0,0,0,0,0,0,0,0,0,0,0,0,0,-0.0703,-0.0703,0,-0.0648,-0.0647,-0.0646,-0.0617,-0.0617,-0.0618,-0.0618,-0.06,-0.0599,-0.0599,0,0,0,0,0,0,0,0,0,0,0,0,0,-0.0747,-0.0747,-0.0703,-0.0703,-0.0702,-0.0648,-0.0647,-0.0646,-0.0617,-0.0617,-0.0618,-0.0618,-0.06,-0.0599,-0.0599,0,0,0,0,0,0,0,0,0,0,0,0,0,-0.0712,-0.0747,-0.0704,-0.0683,-0.0681,-0.0648,-0.0647,-0.0646,-0.0617,-0.0617,-0.0618,-0.0618,-0.06,-0.0599,-0.0598,-0.0588,0,0,-0.0596,-0.0595,0,0,0,0,0,0,0,0,-0.0714,-0.071,-0.0687,-0.0684,-0.0682,-0.0642,-0.0656,-0.0629,-0.0617,-0.0639,-0.0618,-0.0618,-0.0618,-0.0616,-0.0602,-0.0588,-0.0587,-0.0596,-0.0595,-0.0595,-0.0594,0,0,0,0,0,0,0,-0.0717,-0.0712,-0.0679,-0.0686,-0.0683,-0.0664,-0.0659,-0.065,-0.0627,-0.0637,-0.0636,-0.0633,-0.0617,-0.0603,-0.0601,-0.0587,-0.0596,-0.0595,-0.0594,-0.0594,-0.0577,-0.0577,0,0,0,0,0,0,-0.0729,-0.0715,-0.0681,-0.0678,-0.0701,-0.0663,-0.0658,-0.0653,-0.0627,-0.0623,-0.0632,-0.0631,-0.0604,-0.0602,-0.0601,-0.0593,-0.0595,-0.0594,-0.0593,-0.0576,-0.0577,-0.0577,0,0,0,0,0,0,-0.073,-0.0727,-0.0683,-0.0697,-0.069,-0.0663,-0.0657,-0.0651,-0.064,-0.0623,-0.062,-0.0628,-0.0604,-0.0602,-0.0592,-0.0592,-0.0593,-0.0593,-0.0576,-0.0577,-0.0577,-0.0574,0,0,0,0,0,0,-0.0732,-0.0727,-0.073,-0.0698,-0.069,-0.0667,-0.0657,-0.065,-0.0639,-0.0637,-0.0618,-0.0616,-0.0604,-0.0593,-0.0591,-0.0591,-0.0592,-0.0576,-0.0576,-0.0577,-0.0574,-0.0574,-0.0575,0,0,0,0,0,-0.0733,-0.0737,-0.073,-0.0727,-0.0694,-0.0667,-0.0661,-0.0641,-0.0639,-0.0632,-0.0619,-0.0617,-0.0593,-0.0592,-0.059,-0.0589,-0.0576,-0.0576,-0.0577,-0.0574,-0.0574,-0.0575,0,0,0,0,0,0,-0.076,-0.0734,-0.0726,-0.0722,-0.0698,-0.0663,-0.0659,-0.0644,-0.0626,-0.0628,-0.0613,-0.061,-0.0601,-0.0598,-0.0597,-0.0586,-0.0586,-0.0586,-0.0586,-0.0586,-0.0586,-0.0582,-0.0591,0,0,0,0,0,-0.0767,-0.0762,-0.0732,-0.0729,-0.072,-0.069,-0.0679,-0.0663,-0.0642,-0.0634,-0.0617,-0.0607,-0.0598,-0.0595,-0.0583,-0.0577,-0.0566,-0.0577,-0.0577,-0.0577,-0.0573,-0.0563,-0.0561,-0.0577,-0.0577,-0.0577,0,0,-0.0778,-0.0762,-0.0761,-0.0734,-0.0716,-0.0695,-0.0683,-0.0667,-0.0649,-0.0637,-0.0613,-0.0605,-0.0596,-0.0584,-0.0581,-0.0583,-0.0565,-0.0577,-0.0577,-0.0573,-0.0563,-0.0561,-0.056,-0.0578,-0.0577,-0.0577,0,0,-0.079,-0.0782,-0.0778,-0.0755,-0.0728,-0.0707,-0.0705,-0.0668,-0.0655,-0.0631,-0.0621,-0.061,-0.0591,-0.0582,-0.0578,-0.0574,-0.0564,-0.0577,-0.0574,-0.0565,-0.0563,-0.0561,-0.0536,-0.0532,-0.0579,-0.0579,-0.0579,0,-0.0809,-0.0785,-0.0772,-0.0755,-0.0736,-0.0714,-0.0695,-0.0678,-0.0641,-0.0628,-0.0626,-0.059,-0.0588,-0.0572,-0.0574,-0.0573,-0.0562,-0.0573,-0.0564,-0.0562,-0.0561,-0.0535,-0.0531,-0.0579,-0.0579,-0.0579,-0.0579,0,-0.0806,-0.0783,-0.0778,-0.0747,-0.0732,-0.0709,-0.0684,-0.0667,-0.065,-0.0625,-0.0601,-0.0587,-0.0566,-0.057,-0.0571,-0.0562,-0.0554,-0.0563,-0.0562,-0.0559,-0.0532,-0.0527,-0.0579,-0.0579,-0.0579,-0.0579,0,0,-0.0849,-0.0788,-0.0786,-0.0751,-0.072,-0.0698,-0.0686,-0.0652,-0.063,-0.0607,-0.0571,-0.0568,-0.0557,-0.0553,-0.0551,-0.0548,-0.0531,-0.0555,-0.0555,-0.0526,-0.0497,-0.0419,-0.0407,-0.0541,-0.054,-0.054,-0.0478,0,-0.0843,-0.0793,-0.0779,-0.073,-0.0689,-0.0675,-0.0657,-0.0632,-0.0609,-0.0571,-0.0562,-0.0531,-0.0553,-0.0538,-0.054,-0.0526,-0.0522,-0.0546,-0.0507,-0.0505,-0.0434,-0.04,-0.0361,-0.0296,-0.0474,-0.0473,-0.0472,0,-0.0831,-0.079,-0.0737,-0.0677,-0.0667,-0.0647,-0.0606,-0.0588,-0.0553,-0.0537,-0.0516,-0.0501,-0.0485,-0.0506,-0.0485,-0.05,-0.0502,-0.0497,-0.0495,-0.0419,-0.0419,-0.0331,-0.0282,-0.0274,-0.0466,-0.0466,-0.0467,0,-0.0806,-0.0758,-0.0706,-0.0683,-0.0626,-0.0613,-0.0597,-0.0569,-0.0537,-0.0507,-0.0474,-0.0464,-0.043,-0.0443,-0.0427,-0.0462,-0.0389,-0.0436,-0.0367,-0.0362,-0.0317,-0.0308,-0.0252,-0.0429,-0.0429,-0.043,-0.043,0,-0.0768,-0.0718,-0.0685,-0.0639,-0.0588,-0.0579,-0.0529,-0.0517,-0.0484,-0.0425,-0.0448,-0.0391,-0.0415,-0.0374,-0.0395,-0.0337,-0.0363,-0.0348,-0.0335,-0.0313,-0.0305,-0.0288,-0.0297,-0.0427,-0.0428,-0.0428,-0.0429,0,-0.0703,-0.0682,-0.0607,-0.0566,-0.0553,-0.0512,-0.0471,-0.0434,-0.0426,-0.0348,-0.0335,-0.0315,-0.0266,-0.0267,-0.0255,-0.0265,-0.0205,-0.0222,-0.0178,-0.0161,-0.0106,-0.0116,-0.0001,0.002,-0.0148,-0.0145,-0.0143,0,-0.064,-0.0599,-0.0549,-0.0508,-0.0478,-0.043,-0.0392,-0.0388,-0.0346,-0.0285,-0.0234,-0.0181,-0.0119,-0.0059,-0.0064,-0.0052,-0.0085,-0.002,-0.0087,-0.0069,-0.0074,-0.0069,-0.0062,-0.0031,-0.0028,-0.0026,-0.0024,0,-0.052,-0.0521,-0.0471,-0.0408,-0.036,-0.0316,-0.0268,-0.0229,-0.0207,-0.015,-0.0063,-0.0016,0.0046,0.0094,0.0112,0.01,0.0025,0.0028,0.0024,0.0021,0.0051,0.0066,-0.0099,-0.0004,-0.0006,-0.0007,-0.0008,-0.0009,-0.043,-0.0391,-0.0353,-0.0296,-0.0255,-0.021,-0.0164,-0.0117,-0.0046,0.0039,0.0078,0.0162,0.0206,0.0238,0.0233,0.0234,0.0191,0.0197,0.0182,0.0187,0.0215,0.0118,0.0241,0.024,0.024,0.0239,0.0239,0,-0.0308,-0.0291,-0.024,-0.0184,-0.0147,-0.0148,-0.0085,-0.0044,0.0046,0.0137,0.0219,0.033,0.0377,0.0369,0.0378,0.0374,0.0343,0.0359,0.0338,0.0334,0.0229,0.024,0.0396,0.0396,0.0396,0.0396,0.0396,0.0396,-0.0223,-0.0172,-0.0176,-0.01,-0.0073,-0.0022,0.0011,0.0069,0.0131,0.0262,0.0346,0.041,0.0465,0.0482,0.048,0.0461,0.0445,0.0476,0.0452,0.0329,0.031,0.0293,0.0301,0.0467,0.0467,0.0564,0.0565,0.0565]}],[{"header":{"parameterUnit":"m.s-1","parameterCategory":2,"la1":30.2991,"la2":30.254,"lo1":-89.0895,"lo2":-89.0444,"dy":0.0017,"dx":0.0017,"nx":28,"ny":28,"refTime":"2025-08-12T21:00:00:Z","depth":"2","parameterNumber":2,"parameterNumberName":"U-component_of_CURRENTS"},"data":[0,0,0,0,0,0,0,0,0,0,0,0,0,0,0,0,0,0,0,0,0,0,0,0,0,0,0,0,0,0,0,0,0,0,0,0,0,0,0,0,0,0,0,0,0,0,0,0,0,0,0,0,0,0,0,0,0,0,0.1368,0.1367,0,0.1298,0.1298,0.1297,0.1252,0.1252,0.1252,0.1251,0.1271,0.1271,0.1272,0,0,0,0,0,0,0,0,0,0,0,0,0,0.1497,0.1495,0.1368,0.1367,0.1366,0.1298,0.1298,0.1297,0.1252,0.1252,0.1252,0.1251,0.127,0.1271,0.1272,0,0,0,0,0,0,0,0,0,0,0,0,0,0.1436,0.1494,0.1368,0.1336,0.1332,0.1299,0.1297,0.1296,0.1252,0.1252,0.1252,0.1251,0.127,0.1271,0.1272,0.1288,0,0,0.1276,0.1276,0,0,0,0,0,0,0,0,0.1439,0.1431,0.1341,0.1338,0.1334,0.1283,0.135,0.1298,0.1252,0.1283,0.1251,0.1251,0.1284,0.1284,0.127,0.1289,0.1289,0.1276,0.1277,0.1277,0.1278,0,0,0,0,0,0,0,0.1444,0.1434,0.134,0.134,0.1336,0.1337,0.1327,0.134,0.1288,0.128,0.1277,0.1269,0.1282,0.1269,0.1271,0.129,0.1276,0.1277,0.1278,0.1278,0.1376,0.1377,0,0,0,0,0,0,0.145,0.1438,0.1342,0.1338,0.1387,0.1335,0.1324,0.13,0.1286,0.1282,0.1269,0.1267,0.1267,0.1269,0.1271,0.1329,0.1277,0.1278,0.1279,0.1374,0.1376,0.1378,0,0,0,0,0,0,0.1453,0.1442,0.1345,0.1388,0.1375,0.1333,0.1306,0.1299,0.1299,0.1277,0.1275,0.1278,0.1267,0.127,0.13,0.1329,0.1279,0.128,0.1371,0.1374,0.1377,0.1421,0,0,0,0,0,0,0.1457,0.1443,0.1436,0.1387,0.1373,0.134,0.1306,0.1298,0.1294,0.129,0.1284,0.1284,0.1267,0.1298,0.1301,0.1329,0.1281,0.1369,0.1373,0.1376,0.1417,0.1424,0.1431,0,0,0,0,0,0.1461,0.1475,0.1436,0.1425,0.1362,0.134,0.1334,0.1303,0.1295,0.1301,0.13,0.1285,0.1323,0.1301,0.1303,0.1333,0.1367,0.1372,0.1376,0.1413,0.1423,0.1431,0,0,0,0,0,0,0.1553,0.147,0.1427,0.1418,0.138,0.1333,0.1345,0.1318,0.1319,0.1327,0.1306,0.1306,0.1345,0.134,0.1316,0.1374,0.1345,0.135,0.1373,0.1381,0.1389,0.1419,0.1282,0,0,0,0,0,0.156,0.1543,0.1463,0.1467,0.1443,0.1393,0.1385,0.1359,0.1348,0.1346,0.1345,0.1353,0.1363,0.1373,0.1383,0.1415,0.1442,0.1439,0.1447,0.1452,0.1482,0.1559,0.1576,0.1392,0.1392,0.1392,0,0,0.1598,0.1557,0.1546,0.1485,0.1454,0.1442,0.1389,0.1387,0.139,0.1353,0.1388,0.1383,0.1379,0.141,0.1427,0.141,0.1514,0.1458,0.1463,0.1489,0.1566,0.1584,0.16,0.1395,0.1394,0.1394,0,0,0.169,0.1624,0.1636,0.16,0.1553,0.1508,0.1511,0.1466,0.1453,0.147,0.145,0.1468,0.1484,0.1484,0.1484,0.1546,0.1553,0.1548,0.1606,0.168,0.1696,0.1711,0.1744,0.1762,0.1548,0.1549,0.1549,0,0.1746,0.1717,0.1647,0.1652,0.1622,0.1543,0.1544,0.1528,0.1509,0.1507,0.1497,0.1532,0.1523,0.1557,0.1572,0.1563,0.1598,0.1565,0.169,0.1705,0.172,0.1751,0.1769,0.1551,0.1551,0.1551,0.155,0,0.1835,0.1799,0.1813,0.1765,0.174,0.1727,0.1666,0.1657,0.163,0.1612,0.1644,0.1637,0.1659,0.1652,0.1629,0.1715,0.1704,0.1691,0.1666,0.1741,0.1768,0.1787,0.1555,0.1554,0.1553,0.1553,0,0,0.1963,0.188,0.1891,0.1831,0.1776,0.175,0.1762,0.1718,0.1722,0.1729,0.1761,0.1772,0.1773,0.1777,0.1756,0.181,0.1915,0.18,0.1802,0.183,0.2069,0.1848,0.1846,0.1932,0.1936,0.1939,0.2039,0,0.2033,0.2023,0.1992,0.1964,0.1893,0.1834,0.1847,0.1819,0.1791,0.1815,0.1818,0.1853,0.1818,0.1834,0.189,0.1911,0.1972,0.1889,0.1998,0.2,0.1792,0.1863,0.168,0.1735,0.2057,0.206,0.2062,0,0.2071,0.205,0.2013,0.1936,0.1921,0.1926,0.1868,0.1885,0.1898,0.1898,0.194,0.1948,0.2022,0.1991,0.2103,0.2057,0.2086,0.2099,0.2103,0.1902,0.1814,0.1719,0.1757,0.2093,0.2091,0.2088,0.2086,0,0.2028,0.2033,0.1978,0.1952,0.1897,0.1896,0.1908,0.19,0.1895,0.1966,0.197,0.2073,0.209,0.2196,0.2174,0.2185,0.2273,0.2291,0.2122,0.2105,0.1972,0.1934,0.2407,0.2407,0.2407,0.2407,0.2406,0,0.1985,0.1935,0.1953,0.1895,0.1876,0.1885,0.1874,0.1894,0.195,0.1933,0.2023,0.2012,0.2147,0.217,0.2227,0.2184,0.2318,0.2153,0.2128,0.1973,0.1937,0.2267,0.2249,0.241,0.2409,0.2409,0.2408,0,0.1827,0.184,0.1753,0.1777,0.1792,0.1771,0.1825,0.1818,0.1901,0.1888,0.1922,0.1991,0.2019,0.208,0.2196,0.2174,0.2212,0.2159,0.1927,0.1871,0.2007,0.1991,0.2075,0.2068,0.2063,0.2058,0.2054,0,0.169,0.1635,0.1653,0.1633,0.1627,0.1641,0.1636,0.1746,0.1726,0.1818,0.1783,0.1848,0.1778,0.1837,0.186,0.1912,0.2026,0.1755,0.1743,0.2012,0.198,0.1973,0.1965,0.1601,0.1593,0.1587,0.1582,0,0.1457,0.1487,0.1465,0.1436,0.1421,0.1422,0.1442,0.1436,0.1535,0.1521,0.1499,0.1495,0.1512,0.1443,0.147,0.1502,0.1745,0.1627,0.202,0.1661,0.1558,0.1528,0.1538,0.1528,0.1534,0.1538,0.1541,0.1543,0.1301,0.1253,0.1262,0.1218,0.1219,0.12,0.1164,0.1174,0.1139,0.1118,0.1184,0.1109,0.1173,0.1095,0.1114,0.1188,0.1339,0.1345,0.1369,0.1398,0.1273,0.116,0.1033,0.1036,0.1038,0.104,0.1041,0,0.1097,0.1083,0.1054,0.1009,0.0964,0.1027,0.1009,0.096,0.0852,0.0841,0.0783,0.0687,0.0626,0.0754,0.0755,0.0794,0.0874,0.0803,0.0901,0.095,0.0995,0.0857,0.0504,0.0503,0.0502,0.0501,0,0,0.0952,0.0881,0.0883,0.0761,0.0756,0.0674,0.0651,0.0591,0.0563,0.0462,0.0404,0.0441,0.057,0.0449,0.0501,0.0489,0.0718,0.0477,0.0892,0.1044,0.1087,0.1275,0.1109,0,0,0,0,0]},{"header":{"parameterUnit":"m.s-1","parameterCategory":2,"la1":30.2991,"la2":30.254,"lo1":-89.0895,"lo2":-89.0444,"dy":0.0017,"dx":0.0017,"nx":28,"ny":28,"refTime":"2025-08-12T21:00:00:Z","depth":"2","parameterNumber":3,"parameterNumberName":"V-component_of_CURRENTS"},"data":[0,0,0,0,0,0,0,0,0,0,0,0,0,0,0,0,0,0,0,0,0,0,0,0,0,0,0,0,0,0,0,0,0,0,0,0,0,0,0,0,0,0,0,0,0,0,0,0,0,0,0,0,0,0,0,0,0,0,0.0101,0.0102,0,0.0166,0.0167,0.0168,0.0172,0.0171,0.017,0.0169,0.0186,0.0188,0.0189,0,0,0,0,0,0,0,0,0,0,0,0,0,0.0043,0.0044,0.0101,0.0102,0.0102,0.0166,0.0167,0.0168,0.0172,0.0171,0.017,0.0169,0.0186,0.0188,0.0189,0,0,0,0,0,0,0,0,0,0,0,0,0,0.0086,0.0044,0.0101,0.011,0.0112,0.0165,0.0167,0.0168,0.0172,0.0171,0.0169,0.0168,0.0185,0.0187,0.0189,0.023,0,0,0.0196,0.0196,0,0,0,0,0,0,0,0,0.0083,0.0088,0.0108,0.011,0.0111,0.0157,0.0152,0.0186,0.0173,0.0152,0.0169,0.0167,0.0172,0.0175,0.0194,0.0231,0.0232,0.0196,0.0197,0.0198,0.0198,0,0,0,0,0,0,0,0.008,0.0086,0.0129,0.0109,0.0111,0.0132,0.0136,0.0159,0.017,0.0153,0.0153,0.0157,0.0172,0.0192,0.0194,0.0232,0.0196,0.0197,0.0199,0.0199,0.0204,0.0203,0,0,0,0,0,0,0.0066,0.0083,0.0127,0.0131,0.0091,0.0134,0.0139,0.0146,0.0171,0.0173,0.0158,0.0157,0.019,0.0192,0.0195,0.0157,0.0198,0.02,0.0201,0.0205,0.0204,0.0202,0,0,0,0,0,0,0.0065,0.007,0.0124,0.0106,0.0114,0.0136,0.0144,0.0148,0.0122,0.0174,0.0176,0.0123,0.0189,0.0192,0.0196,0.0161,0.0201,0.0202,0.0206,0.0205,0.0203,0.0137,0,0,0,0,0,0,0.0063,0.0069,0.0049,0.0105,0.0115,0.0127,0.0145,0.015,0.0129,0.0127,0.0146,0.0149,0.0188,0.0193,0.0198,0.0164,0.0204,0.0208,0.0205,0.0204,0.0141,0.0134,0.0128,0,0,0,0,0,0.0061,0.003,0.0048,0.0052,0.0094,0.0126,0.0132,0.0145,0.0128,0.0116,0.0136,0.0146,0.0182,0.0195,0.0201,0.0166,0.0209,0.0206,0.0204,0.0144,0.0135,0.0128,0,0,0,0,0,0,-0.0021,0.0029,0.005,0.0032,0.0067,0.0125,0.0101,0.0115,0.0124,0.0101,0.0148,0.0154,0.0142,0.0163,0.0175,0.016,0.019,0.0189,0.0143,0.0135,0.0128,0.0106,0.0206,0,0,0,0,0,-0.004,-0.0055,0.0014,-0.0012,0.0004,0.0046,0.0049,0.0062,0.0087,0.0086,0.01,0.0116,0.0146,0.0145,0.017,0.0166,0.018,0.0143,0.0136,0.013,0.0115,0.0109,0.01,0.0194,0.0194,0.0194,0,0,-0.008,-0.0062,-0.0069,-0.0031,-0.0008,0.0007,0.0043,0.0031,0.0034,0.0087,0.0063,0.0091,0.014,0.0144,0.0137,0.015,0.0114,0.0127,0.0122,0.011,0.0105,0.0096,0.0088,0.0193,0.0193,0.0193,0,0,-0.0161,-0.0146,-0.0171,-0.0142,-0.0116,-0.0073,-0.0088,-0.0048,-0.0041,-0.0036,0.0002,0.0009,0.0035,0.0074,0.01,0.0067,0.0081,0.0055,0.0002,-0.0005,-0.0013,-0.002,0.0001,-0.0004,0.0048,0.0048,0.0048,0,-0.0216,-0.0212,-0.0177,-0.0185,-0.0166,-0.0117,-0.0118,-0.0096,-0.0069,-0.0054,-0.0065,-0.0018,0.0008,0.0047,0.0029,0.005,0.0052,0.0032,-0.0014,-0.0021,-0.0027,-0.0004,-0.0008,0.0045,0.0045,0.0046,0.0046,0,-0.0298,-0.0281,-0.0299,-0.0276,-0.0263,-0.0258,-0.0202,-0.0203,-0.0195,-0.0159,-0.0146,-0.01,-0.0071,-0.0067,-0.003,-0.0053,-0.0035,-0.0019,0.0005,-0.004,-0.0013,-0.0016,0.004,0.0041,0.0042,0.0043,0,0,-0.0414,-0.0359,-0.0364,-0.0315,-0.0297,-0.0268,-0.0285,-0.023,-0.0212,-0.0218,-0.02,-0.0172,-0.0162,-0.0134,-0.0095,-0.0109,-0.0145,-0.0102,-0.01,-0.0083,-0.0154,-0.009,-0.0086,-0.0149,-0.0151,-0.0152,-0.0113,0,-0.0465,-0.0446,-0.0441,-0.0408,-0.0347,-0.0322,-0.0318,-0.0288,-0.0255,-0.0232,-0.0204,-0.0178,-0.0178,-0.0167,-0.0188,-0.0133,-0.0161,-0.0157,-0.0112,-0.011,-0.0049,-0.009,-0.009,-0.0053,-0.0116,-0.0116,-0.0116,0,-0.0497,-0.0469,-0.0431,-0.0353,-0.0342,-0.0344,-0.0287,-0.0286,-0.0252,-0.0245,-0.0244,-0.0216,-0.0213,-0.0226,-0.0206,-0.0209,-0.0214,-0.0191,-0.0189,-0.0112,-0.0052,-0.002,-0.0055,-0.0121,-0.0121,-0.0121,-0.012,0,-0.0451,-0.0433,-0.0381,-0.0362,-0.0308,-0.0307,-0.0307,-0.0277,-0.0257,-0.0252,-0.0239,-0.024,-0.0208,-0.0242,-0.0197,-0.0222,-0.0171,-0.0184,-0.0133,-0.0126,-0.0107,-0.0097,-0.0225,-0.0225,-0.0225,-0.0225,-0.0225,0,-0.0416,-0.0365,-0.0344,-0.0297,-0.0269,-0.0264,-0.0237,-0.0245,-0.0243,-0.0206,-0.0242,-0.0203,-0.0221,-0.0179,-0.0199,-0.0146,-0.0172,-0.0153,-0.0122,-0.0126,-0.0119,-0.0166,-0.0159,-0.0224,-0.0224,-0.0224,-0.0225,0,-0.033,-0.03,-0.0227,-0.0211,-0.0209,-0.0192,-0.021,-0.018,-0.0201,-0.0159,-0.0169,-0.0159,-0.0116,-0.01,-0.0092,-0.0096,-0.0081,-0.0068,-0.0052,-0.0022,-0.0042,-0.004,-0.0035,-0.0033,-0.0031,-0.0029,-0.0028,0,-0.0266,-0.0209,-0.0187,-0.0158,-0.0151,-0.0136,-0.0121,-0.0154,-0.0122,-0.0109,-0.0073,-0.0041,0.0011,0.0067,0.0049,0.0044,0.0002,0.0042,-0.0021,-0.0058,-0.0029,-0.0029,-0.0029,-0.0017,-0.0015,-0.0014,-0.0013,0,-0.0168,-0.0168,-0.0141,-0.0107,-0.0073,-0.0059,-0.0041,-0.0015,-0.0027,0.0011,0.0064,0.0089,0.0141,0.0152,0.0156,0.0134,0.0039,0.0066,0.0021,-0.0055,-0.0034,-0.0007,-0.0009,-0.0003,-0.0004,-0.0005,-0.0005,-0.0006,-0.013,-0.0114,-0.0095,-0.0072,-0.0033,-0.0006,0.0006,0.0048,0.0084,0.0119,0.0168,0.0204,0.0211,0.021,0.0201,0.0157,0.0131,0.009,0.0084,0.0077,0.0081,0.0105,0.0165,0.0165,0.0164,0.0164,0.0164,0,-0.0113,-0.0092,-0.0067,-0.0034,-0.001,-0.0006,0.0042,0.0057,0.0111,0.0181,0.0228,0.0239,0.0264,0.024,0.0191,0.0179,0.0134,0.0162,0.0095,0.0087,0.0079,0.008,0.0165,0.0165,0.0165,0.0165,0,0,-0.006,-0.0056,-0.0065,-0.0031,-0.0016,0.0005,0.0021,0.0058,0.0105,0.0164,0.0202,0.0271,0.0271,0.0241,0.0219,0.0186,0.0131,0.0175,0.0177,0.0093,0.0085,0.0044,0.0038,0,0,0,0,0]}],[{"header":{"parameterUnit":"m.s-1","parameterCategory":2,"la1":30.2991,"la2":30.254,"lo1":-89.0895,"lo2":-89.0444,"dy":0.0017,"dx":0.0017,"nx":28,"ny":28,"refTime":"2025-08-12T21:00:00:Z","depth":"4","parameterNumber":2,"parameterNumberName":"U-component_of_CURRENTS"},"data":[0,0,0,0,0,0,0,0,0,0,0,0,0,0,0,0,0,0,0,0,0,0,0,0,0,0,0,0,0,0,0,0,0,0,0,0,0,0,0,0,0,0,0,0,0,0,0,0,0,0,0,0,0,0,0,0,0,0,-0.0535,-0.0535,0,-0.0515,-0.0515,-0.0515,-0.045,-0.0449,-0.0448,-0.0446,-0.0459,-0.0461,-0.0462,0,0,0,0,0,0,0,0,0,0,0,0,0,-0.049,-0.0491,-0.0535,-0.0535,-0.0535,-0.0515,-0.0515,-0.0515,-0.045,-0.0449,-0.0447,-0.0446,-0.0459,-0.0461,-0.0462,0,0,0,0,0,0,0,0,0,0,0,0,0,-0.0492,-0.0492,-0.0535,-0.0502,-0.0499,-0.0516,-0.0515,-0.0514,-0.0451,-0.0449,-0.0447,-0.0445,-0.0458,-0.046,-0.0463,-0.0514,0,0,-0.047,-0.0471,0,0,0,0,0,0,0,0,-0.0492,-0.0494,-0.0507,-0.0505,-0.0501,-0.0485,-0.0504,-0.0517,-0.0451,-0.0467,-0.0446,-0.0444,-0.0474,-0.0475,-0.0472,-0.0514,-0.0515,-0.047,-0.0471,-0.0472,-0.0473,0,0,0,0,0,0,0,-0.0492,-0.0494,-0.0525,-0.0507,-0.0504,-0.0479,-0.0478,-0.0506,-0.048,-0.0465,-0.0461,-0.0463,-0.0472,-0.0469,-0.0472,-0.0515,-0.047,-0.0472,-0.0473,-0.0474,-0.0509,-0.0508,0,0,0,0,0,0,-0.0503,-0.0494,-0.0526,-0.0525,-0.0494,-0.0482,-0.048,-0.049,-0.0479,-0.0476,-0.0465,-0.046,-0.0467,-0.0469,-0.0472,-0.0406,-0.0472,-0.0474,-0.0475,-0.0509,-0.0508,-0.0508,0,0,0,0,0,0,-0.0502,-0.0506,-0.0527,-0.051,-0.0511,-0.0485,-0.0497,-0.0491,-0.0428,-0.0478,-0.0475,-0.0402,-0.0465,-0.0469,-0.0442,-0.041,-0.0475,-0.0477,-0.0509,-0.0509,-0.0508,-0.0355,0,0,0,0,0,0,-0.0501,-0.0506,-0.0513,-0.0511,-0.0512,-0.0501,-0.0499,-0.0492,-0.0438,-0.043,-0.0425,-0.0427,-0.0464,-0.0438,-0.0444,-0.0415,-0.0479,-0.051,-0.0509,-0.0508,-0.036,-0.0349,-0.0339,0,0,0,0,0,-0.05,-0.0513,-0.0514,-0.0517,-0.0525,-0.05,-0.0497,-0.0471,-0.0436,-0.0406,-0.0393,-0.0424,-0.0439,-0.0438,-0.0446,-0.0416,-0.051,-0.0509,-0.0508,-0.0365,-0.0351,-0.0339,0,0,0,0,0,0,-0.049,-0.0508,-0.0509,-0.0525,-0.05,-0.0489,-0.0467,-0.0436,-0.04,-0.0373,-0.0405,-0.0408,-0.0379,-0.0425,-0.0424,-0.0431,-0.0486,-0.0487,-0.0375,-0.0362,-0.0352,-0.0344,-0.0481,0,0,0,0,0,-0.0498,-0.0508,-0.0507,-0.051,-0.0496,-0.0467,-0.0449,-0.0415,-0.0391,-0.0368,-0.0349,-0.0361,-0.0395,-0.0392,-0.0419,-0.0412,-0.0446,-0.0407,-0.0396,-0.0386,-0.0389,-0.0429,-0.0421,-0.0505,-0.0505,-0.0505,0,0,-0.0495,-0.0505,-0.0509,-0.0508,-0.0485,-0.0461,-0.0447,-0.039,-0.0362,-0.0382,-0.0307,-0.031,-0.0385,-0.0374,-0.0368,-0.0395,-0.0368,-0.0385,-0.0376,-0.0384,-0.0427,-0.0419,-0.0411,-0.0504,-0.0504,-0.0504,0,0,-0.0476,-0.0493,-0.0484,-0.0464,-0.0423,-0.0416,-0.0382,-0.032,-0.0285,-0.0225,-0.0248,-0.0237,-0.0231,-0.0296,-0.0336,-0.0295,-0.0309,-0.0275,-0.021,-0.0247,-0.024,-0.0235,-0.0203,-0.0196,-0.027,-0.027,-0.027,0,-0.0464,-0.0463,-0.047,-0.0444,-0.0421,-0.0386,-0.0342,-0.0327,-0.0249,-0.0224,-0.0179,-0.018,-0.0223,-0.0282,-0.0245,-0.0274,-0.0246,-0.0242,-0.023,-0.0226,-0.0223,-0.0193,-0.0187,-0.0262,-0.0263,-0.0264,-0.0265,0,-0.043,-0.0423,-0.0404,-0.0379,-0.0356,-0.0303,-0.0287,-0.0229,-0.0161,-0.0137,-0.0096,-0.0128,-0.012,-0.0144,-0.0168,-0.0173,-0.0138,-0.0205,-0.0251,-0.0204,-0.0176,-0.0172,-0.0252,-0.0254,-0.0257,-0.0258,0,0,-0.0394,-0.0387,-0.037,-0.0344,-0.0304,-0.027,-0.0241,-0.0206,-0.0152,-0.009,-0.0027,-0.0079,-0.002,-0.0065,-0.0091,-0.0128,-0.0059,-0.0108,-0.0113,-0.0055,-0.0039,-0.0001,0.0006,-0.0077,-0.0077,-0.0077,-0.0002,0,-0.0345,-0.0279,-0.0311,-0.0243,-0.0189,-0.0191,-0.0168,-0.0131,-0.0072,0.0003,-0.0048,0.0003,-0.0021,0.004,0.0006,-0.0053,-0.0049,-0.0068,-0.0114,-0.0115,-0.0072,0.0008,-0.0078,-0.0,0.0,0.0001,0.0001,0,-0.0296,-0.0237,-0.0141,-0.0139,-0.0121,-0.0082,-0.0004,0.0008,0.0048,0.0106,0.0149,0.0159,0.0135,0.0116,0.0053,0.0079,0.0063,-0.0001,-0.0001,-0.0027,-0.0074,-0.0079,0.0006,0.0005,0.0005,0.0005,0.0004,0,-0.0216,-0.0159,-0.0063,-0.004,0.0002,0.0043,0.0044,0.0094,0.0095,0.0205,0.0262,0.0259,0.0287,0.0228,0.0143,0.0151,0.0064,0.0028,0.0034,0.0039,-0.0087,-0.0096,-0.001,-0.001,-0.001,-0.001,-0.0011,0,-0.0172,-0.0124,0.0017,0.0064,0.0163,0.0174,0.024,0.0244,0.0283,0.0286,0.0355,0.037,0.0329,0.0273,0.0197,0.0141,0.0111,0.0075,0.0055,-0.0016,-0.0017,-0.0081,-0.009,-0.0008,-0.0008,-0.0009,-0.0009,0,-0.0146,-0.0071,0.0034,0.0164,0.0194,0.0287,0.0266,0.0305,0.0372,0.039,0.0427,0.0469,0.047,0.0378,0.0282,0.0219,0.012,0.0096,0.0082,0.0054,0.0134,0.0131,0.0181,0.0183,0.0185,0.0186,0.0187,0,-0.0145,-0.0048,0.0118,0.0173,0.0228,0.0334,0.0361,0.0371,0.0377,0.0407,0.04,0.0468,0.0487,0.0381,0.0321,0.0233,0.0182,0.0163,0.0124,0.0175,0.0151,0.0146,0.0141,0.019,0.019,0.0191,0.0191,0,-0.0111,-0.002,0.0075,0.0197,0.0275,0.0307,0.0333,0.0332,0.0344,0.0401,0.0384,0.0398,0.0429,0.0402,0.0359,0.0252,0.0189,0.018,0.0176,0.0139,0.0185,0.0159,0.0152,0.0196,0.0196,0.0195,0.0195,0,-0.0078,-0.0002,0.0121,0.0196,0.0256,0.0256,0.0273,0.0276,0.0277,0.0306,0.0301,0.0354,0.0408,0.0412,0.0319,0.0293,0.0298,0.0232,0.0226,0.022,0.0195,0.0257,0.0298,0,0,0,0,0,-0.0028,-0.0001,0.0064,0.0146,0.0173,0.0185,0.0223,0.025,0.0287,0.0259,0.0267,0.0283,0.0302,0.033,0.0317,0.037,0.0298,0.0352,0.0217,0.0227,0.022,0.0185,0,0,0,0,0,0,0.0006,0.0064,0.0068,0.0062,0.0074,0.0101,0.012,0.0155,0.0132,0.0181,0.0196,0.0247,0.0274,0.0296,0.0302,0.0311,0.0213,0.0386,0.0384,0.023,0.0224,0.0219,0.0181,0,0,0,0,0]},{"header":{"parameterUnit":"m.s-1","parameterCategory":2,"la1":30.2991,"la2":30.254,"lo1":-89.0895,"lo2":-89.0444,"dy":0.0017,"dx":0.0017,"nx":28,"ny":28,"refTime":"2025-08-12T21:00:00:Z","depth":"4","parameterNumber":3,"parameterNumberName":"V-component_of_CURRENTS"},"data":[0,0,0,0,0,0,0,0,0,0,0,0,0,0,0,0,0,0,0,0,0,0,0,0,0,0,0,0,0,0,0,0,0,0,0,0,0,0,0,0,0,0,0,0,0,0,0,0,0,0,0,0,0,0,0,0,0,0,0.0279,0.0279,0,0.0277,0.0276,0.0276,0.0309,0.0311,0.0313,0.0314,0.0305,0.0304,0.0302,0,0,0,0,0,0,0,0,0,0,0,0,0,0.024,0.024,0.0279,0.028,0.028,0.0277,0.0276,0.0275,0.0309,0.0311,0.0313,0.0315,0.0306,0.0304,0.0302,0,0,0,0,0,0,0,0,0,0,0,0,0,0.0241,0.024,0.0279,0.0303,0.0306,0.0277,0.0276,0.0275,0.0309,0.0311,0.0314,0.0316,0.0307,0.0304,0.0301,0.0233,0,0,0.0293,0.0292,0,0,0,0,0,0,0,0,0.0241,0.0241,0.0299,0.0302,0.0305,0.0304,0.026,0.0264,0.0308,0.0298,0.0314,0.0317,0.0308,0.0305,0.0287,0.0232,0.0232,0.0293,0.0291,0.029,0.0289,0,0,0,0,0,0,0,0.0241,0.0242,0.0269,0.03,0.0303,0.0291,0.0293,0.026,0.0282,0.0299,0.0304,0.0317,0.0309,0.0289,0.0287,0.0232,0.0293,0.029,0.0289,0.0288,0.0193,0.0192,0,0,0,0,0,0,0.026,0.0242,0.0269,0.027,0.0289,0.029,0.0293,0.0294,0.0282,0.0286,0.0315,0.0319,0.0293,0.029,0.0287,0.0307,0.029,0.0287,0.0286,0.0194,0.0193,0.0192,0,0,0,0,0,0,0.0259,0.0262,0.027,0.0264,0.0265,0.029,0.029,0.0293,0.0326,0.0296,0.0298,0.0352,0.0295,0.0291,0.0274,0.0304,0.0286,0.0284,0.0195,0.0194,0.0193,0.0283,0,0,0,0,0,0,0.0257,0.0261,0.029,0.0264,0.0267,0.0283,0.0289,0.0292,0.0331,0.0337,0.0327,0.0326,0.0296,0.0278,0.0271,0.03,0.0281,0.0196,0.0194,0.0193,0.0281,0.0284,0.0288,0,0,0,0,0,0.0256,0.0289,0.0291,0.0297,0.0298,0.0285,0.0284,0.0304,0.0331,0.0343,0.0324,0.0329,0.0264,0.0275,0.0267,0.0296,0.0197,0.0195,0.0193,0.0279,0.0284,0.0288,0,0,0,0,0,0,0.0287,0.0295,0.0297,0.0332,0.0323,0.0295,0.0335,0.0329,0.0322,0.0356,0.0312,0.0307,0.0298,0.0273,0.0286,0.0257,0.0233,0.023,0.0301,0.0305,0.0309,0.0376,0.0279,0,0,0,0,0,0.0306,0.0347,0.0321,0.0359,0.0365,0.0353,0.0364,0.0372,0.0356,0.0361,0.0351,0.0327,0.0271,0.0275,0.023,0.0221,0.0207,0.0231,0.0235,0.0239,0.0284,0.0243,0.0249,0.0186,0.0186,0.0186,0,0,0.0327,0.0348,0.0367,0.0372,0.038,0.0391,0.0367,0.0406,0.0415,0.0358,0.0393,0.034,0.0264,0.0244,0.0242,0.0242,0.0246,0.0236,0.0241,0.0284,0.0242,0.0249,0.0255,0.0185,0.0185,0.0185,0,0,0.0393,0.0412,0.0461,0.0461,0.0492,0.047,0.0491,0.0484,0.0489,0.0492,0.0433,0.0397,0.0366,0.0296,0.0254,0.0248,0.0253,0.0249,0.0345,0.0304,0.0311,0.0316,0.0309,0.0313,0.0268,0.0268,0.0268,0,0.0433,0.0475,0.0471,0.0513,0.0535,0.0512,0.0548,0.0527,0.0518,0.0515,0.0533,0.0442,0.0384,0.0306,0.0314,0.0262,0.0266,0.034,0.0314,0.0319,0.0323,0.0315,0.0318,0.0272,0.0271,0.0271,0.0271,0,0.0501,0.0554,0.0591,0.0632,0.0642,0.068,0.0647,0.0662,0.0678,0.0649,0.0621,0.053,0.0484,0.0442,0.0391,0.0372,0.0373,0.0313,0.0318,0.0336,0.0324,0.0327,0.0278,0.0276,0.0275,0.0274,0,0,0.0543,0.0626,0.0639,0.0671,0.0716,0.0709,0.0746,0.073,0.0738,0.0737,0.0735,0.0642,0.0622,0.0572,0.0483,0.0462,0.0476,0.0442,0.0438,0.0465,0.0442,0.0375,0.037,0.0434,0.0435,0.0436,0.0424,0,0.0606,0.0684,0.0722,0.0789,0.0815,0.0826,0.0845,0.0834,0.0823,0.0809,0.0729,0.0677,0.0653,0.0624,0.0612,0.0477,0.0489,0.0489,0.0397,0.0396,0.0356,0.0371,0.0438,0.0426,0.0426,0.0427,0.0427,0,0.0648,0.0697,0.0759,0.0845,0.0862,0.0884,0.0902,0.0921,0.0889,0.0886,0.0866,0.0805,0.0742,0.0718,0.0623,0.064,0.0595,0.0517,0.0512,0.0432,0.0332,0.0397,0.043,0.043,0.043,0.043,0.0429,0,0.0613,0.0726,0.0767,0.079,0.0863,0.0891,0.0931,0.0932,0.0919,0.0907,0.0888,0.0857,0.0779,0.0754,0.0628,0.0648,0.0524,0.0497,0.0407,0.0402,0.043,0.0424,0.0484,0.0484,0.0484,0.0484,0.0484,0,0.0633,0.0677,0.0739,0.0752,0.0784,0.0867,0.0881,0.0916,0.0928,0.0893,0.0908,0.0846,0.0792,0.0706,0.066,0.0533,0.0549,0.0454,0.0396,0.0464,0.0462,0.0432,0.0426,0.0484,0.0484,0.0484,0.0484,0,0.0575,0.0627,0.0666,0.0743,0.0754,0.0763,0.0821,0.0827,0.0865,0.0817,0.081,0.08,0.0714,0.0644,0.0538,0.0508,0.0411,0.0366,0.0466,0.0408,0.0335,0.0333,0.0318,0.0316,0.0314,0.0312,0.0311,0,0.0549,0.0562,0.0607,0.06,0.0627,0.065,0.0667,0.0748,0.0751,0.0761,0.0726,0.0664,0.0638,0.0452,0.0418,0.0342,0.0317,0.0309,0.035,0.0374,0.0319,0.0321,0.0322,0.0308,0.0307,0.0306,0.0306,0,0.0494,0.0503,0.0512,0.0502,0.0499,0.051,0.0553,0.0534,0.0622,0.0641,0.0606,0.0564,0.046,0.0407,0.0325,0.0272,0.0342,0.0289,0.0294,0.0333,0.036,0.0308,0.0312,0.0299,0.03,0.0301,0.0301,0,0.043,0.0402,0.0407,0.039,0.0394,0.0392,0.0421,0.0445,0.0457,0.051,0.0483,0.0441,0.0442,0.0365,0.0289,0.0231,0.0248,0.0262,0.0269,0.0277,0.0262,0.029,0.0181,0,0,0,0,0,0.0359,0.0321,0.0311,0.0287,0.0309,0.0311,0.0361,0.0406,0.0458,0.0414,0.0461,0.038,0.0308,0.0296,0.0222,0.0259,0.0235,0.0176,0.0253,0.0259,0.0268,0.0251,0,0,0,0,0,0,0.0296,0.0274,0.027,0.0217,0.0197,0.0209,0.0234,0.0282,0.0283,0.0339,0.0295,0.0344,0.0266,0.0309,0.0201,0.0195,0.0237,0.0165,0.0164,0.0255,0.0262,0.0269,0.0254,0,0,0,0,0]}]]